Regional Weather Roundup
Issued by NWS

Home | Current Version | Previous Version | Graphics & Text | Print | Product List | Glossary On
Versions: 1 2 3 4 5 6 7 8 9 10 11 12 13 14 15 16 17 18 19 20 21 22 23 24 25 26 27 28 29 30 31 32 33 34 35 36 37 38 39 40 41 42 43 44 45 46 47 48 49 50
000
ASUS43 KFSD 121610
RWRSD

WEATHER ROUNDUP FOR SOUTH DAKOTA
NATIONAL WEATHER SERVICE SIOUX FALLS SD
1000 AM CST TUE DEC 12 2017

NOTE: "FAIR" INDICATES FEW OR NO CLOUDS BELOW 12,000 FEET WITH NO
SIGNIFICANT WEATHER AND/OR OBSTRUCTIONS TO VISIBILITY.


SDZ001>005-009-010-012>017-121700-
NORTHWEST AND NORTH CENTRAL SOUTH DAKOTA

CITY           SKY/WX    TMP DP  RH WIND       PRES   REMARKS
BUFFALO          N/A     35  24  64 W13       30.03S WCI  26
FAITH            N/A     31  24  75 SW8       30.10S WCI  23
MOBRIDGE       SUNNY     31  26  82 S6        30.06F WCI  25
$$

SDZ012>016-024>037-041>051-057-063-072>074-121700-
SOUTHWEST AND SOUTH CENTRAL SOUTH DAKOTA

CITY           SKY/WX    TMP DP  RH WIND       PRES   REMARKS
RAPID CTY ARPT CLOUDY    37  12  35 CALM      30.15S SMOKE
PIERRE         SUNNY     28  24  85 W12       30.14F WCI  18
CUSTER         SUNNY     48   9  20 NW10G22   30.17S
ELLSWORTH AFB  CLOUDY    37  18  46 W5        30.13S
PHILIP         SUNNY     30  23  75 W9        30.15F WCI  22
PINE RIDGE     SUNNY     35  27  72 SW7       30.20F WCI  29
SPEARFISH      FAIR      48  16  27 W16       30.15S
WINNER         FAIR      35  26  69 SW7       30.18F WCI  29
$$

SDZ004>011-016>023-039-040-121700-
NORTHEAST SOUTH DAKOTA

CITY           SKY/WX    TMP DP  RH WIND       PRES   REMARKS
ABERDEEN       CLOUDY    28  26  92 SW10      30.11F WCI  19
WATERTOWN      CLOUDY    25  22  88 SW10      30.11S WCI  15
BROOKINGS      CLOUDY    27  21  80 SW6       30.15S WCI  20
SISSETON         N/A     31  26  82 SW10      30.06F WCI  22
$$

SDZ017-020-022-023-036>040-048>070-121700-
SOUTHEAST SOUTH DAKOTA

CITY           SKY/WX    TMP DP  RH WIND       PRES   REMARKS
SIOUX FALLS    CLOUDY    24  19  81 SW6       30.19F WCI  17
HURON          SUNNY     31  27  85 SW9       30.15F WCI  23
CHAMBERLAIN    SUNNY     32  29  88 W8        30.18F WCI  25
MITCHELL       SUNNY     31  27  85 SW6       30.19F WCI  25
YANKTON        CLOUDY    25  21  85 S5        30.22F WCI  19
$$

ABBREVIATIONS USED IN REMARKS
   TC - TEMPERATURE IN CELSIUS
  WCI - WIND CHILL INDEX
   HX - HEAT INDEX
  VSB - VISIBILITY





USA.gov is the U.S. government's official web portal to all federal, state and local government web resources and services.